When you browse on this site, cookies collect data to enhance your experience and personalize the content and advertising you see.
Visit our Privacy Policy to learn more. By continuing to use the site, you agree to this use of cookies and data.
  • In Deutschland
  • Länderverzeichnis
  • Für 7 Tage
  • Wassertemperatur
  • Wetterkarte
  • Widgets
  • user-avatar
    Anmelden

    Stündliche Wetter Sölden

    Heute, 1 Juni, Montag

    Zeit Temperatur Niederschläge Wind Luftdruck Luftfeuchtigkeit
    00:00 0°C° 0 mm 1 m/S 582 mmHg 82%
    01:00 0°C° 0 mm 1 m/S 582 mmHg 82%
    02:00 0°C° 0 mm 1 m/S 582 mmHg 81%
    03:00 0°C° 0 mm 1 m/S 582 mmHg 81%
    04:00 -1°C° 0 mm 1 m/S 581 mmHg 81%
    05:00 +2°C° 0 mm 1 m/S 582 mmHg 75%
    06:00 +3°C° 0 mm 0 m/S 584 mmHg 69%
    07:00 +5°C° 0 mm 0 m/S 585 mmHg 63%
    08:00 +8°C° 0 mm 1 m/S 586 mmHg 58%
    09:00 +10°C° 0 mm 1 m/S 586 mmHg 53%
    10:00 +11°C° 0 mm 1 m/S 587 mmHg 48%
    11:00 +12°C° 0 mm 1 m/S 587 mmHg 47%
    12:00 +13°C° 0 mm 1 m/S 588 mmHg 45%
    13:00 +14°C° 0 mm 1 m/S 588 mmHg 44%
    14:00 +14°C° 0.2 mm 2 m/S 587 mmHg 47%
    15:00 +13°C° 0.2 mm 2 m/S 587 mmHg 50%
    16:00 +13°C° 0.2 mm 2 m/S 587 mmHg 54%
    17:00 +10°C° 0.6 mm 2 m/S 586 mmHg 64%
    18:00 +10°C° 0.6 mm 1 m/S 586 mmHg 74%
    19:00 +8°C° 0.6 mm 1 m/S 585 mmHg 84%
    20:00 +7°C° 0.2 mm 1 m/S 584 mmHg 86%
    21:00 +5°C° 0.2 mm 1 m/S 584 mmHg 89%
    22:00 +3°C° 0.2 mm 1 m/S 583 mmHg 91%
    23:00 +3°C° 0 mm 1 m/S 583 mmHg 91%

    Morgen, 2 Juni, Dienstag

    Zeit Temperatur Niederschläge Wind Luftdruck Luftfeuchtigkeit
    00:00 +2°C° 0 mm 1 m/S 582 mmHg 91%
    01:00 +2°C° 0 mm 1 m/S 582 mmHg 90%
    02:00 +2°C° 0 mm 1 m/S 582 mmHg 89%
    03:00 +2°C° 0 mm 1 m/S 582 mmHg 88%
    04:00 +2°C° 0 mm 1 m/S 581 mmHg 86%
    05:00 +3°C° 0 mm 1 m/S 582 mmHg 82%
    06:00 +5°C° 0 mm 1 m/S 583 mmHg 78%
    07:00 +7°C° 0 mm 1 m/S 584 mmHg 74%
    08:00 +9°C° 0 mm 1 m/S 585 mmHg 64%
    09:00 +11°C° 0 mm 1 m/S 586 mmHg 54%
    10:00 +13°C° 0 mm 1 m/S 586 mmHg 44%
    11:00 +13°C° 0.1 mm 1 m/S 586 mmHg 43%
    12:00 +14°C° 0.1 mm 2 m/S 586 mmHg 41%
    13:00 +15°C° 0.1 mm 2 m/S 586 mmHg 39%
    14:00 +14°C° 0.3 mm 2 m/S 586 mmHg 42%
    15:00 +14°C° 0.3 mm 2 m/S 585 mmHg 45%
    16:00 +13°C° 0.3 mm 2 m/S 585 mmHg 48%
    17:00 +12°C° 0.4 mm 2 m/S 584 mmHg 57%
    18:00 +9°C° 0.4 mm 2 m/S 583 mmHg 67%
    19:00 +9°C° 0.4 mm 1 m/S 582 mmHg 76%
    20:00 +7°C° 0.2 mm 1 m/S 581 mmHg 79%
    21:00 +5°C° 0.2 mm 1 m/S 581 mmHg 81%
    22:00 +3°C° 0.2 mm 2 m/S 580 mmHg 84%
    23:00 +3°C° 0 mm 1 m/S 580 mmHg 83%

    übermorgen, 3 Juni, Mittwoch

    Zeit Temperatur Niederschläge Wind Luftdruck Luftfeuchtigkeit
    00:00 +2°C° 0 mm 1 m/S 579 mmHg 83%
    01:00 +2°C° 0 mm 1 m/S 579 mmHg 83%
    02:00 +2°C° 0 mm 1 m/S 579 mmHg 82%
    03:00 +2°C° 0 mm 1 m/S 578 mmHg 80%
    04:00 +1°C° 0 mm 1 m/S 578 mmHg 79%
    05:00 +3°C° 0 mm 1 m/S 579 mmHg 74%
    06:00 +4°C° 0 mm 0 m/S 579 mmHg 69%
    07:00 +6°C° 0 mm 0 m/S 580 mmHg 65%
    08:00 +8°C° 0 mm 1 m/S 581 mmHg 59%
    09:00 +10°C° 0 mm 1 m/S 581 mmHg 54%
    10:00 +12°C° 0 mm 2 m/S 582 mmHg 48%
    11:00 +12°C° 0.2 mm 2 m/S 582 mmHg 50%
    12:00 +12°C° 0.2 mm 2 m/S 581 mmHg 51%
    13:00 +13°C° 0.2 mm 2 m/S 581 mmHg 53%
    14:00 +12°C° 0.7 mm 2 m/S 580 mmHg 60%
    15:00 +10°C° 0.7 mm 2 m/S 580 mmHg 66%
    16:00 +10°C° 0.7 mm 2 m/S 579 mmHg 73%
    17:00 +9°C° 0.8 mm 2 m/S 578 mmHg 79%
    18:00 +9°C° 0.8 mm 1 m/S 578 mmHg 85%
    19:00 +7°C° 0.8 mm 1 m/S 577 mmHg 91%
    20:00 +6°C° 0.5 mm 1 m/S 577 mmHg 92%
    21:00 +5°C° 0.5 mm 1 m/S 576 mmHg 94%
    22:00 +4°C° 0.5 mm 1 m/S 576 mmHg 96%
    23:00 +4°C° 0.2 mm 1 m/S 576 mmHg 96%

    4 Juni, Donnerstag

    Zeit Temperatur Niederschläge Wind Luftdruck Luftfeuchtigkeit
    00:00 +4°C° 0.2 mm 1 m/S 576 mmHg 96%
    01:00 +4°C° 0.2 mm 1 m/S 575 mmHg 97%
    02:00 +4°C° 0.5 mm 1 m/S 575 mmHg 97%
    03:00 +3°C° 0.5 mm 0 m/S 575 mmHg 97%
    04:00 +4°C° 0.5 mm 0 m/S 575 mmHg 98%
    05:00 +5°C° 0.9 mm 1 m/S 575 mmHg 98%
    06:00 +5°C° 0.9 mm 1 m/S 574 mmHg 98%
    07:00 +5°C° 0.9 mm 1 m/S 574 mmHg 98%
    08:00 +5°C° 0.9 mm 1 m/S 574 mmHg 98%
    09:00 +5°C° 0.9 mm 1 m/S 574 mmHg 98%
    10:00 +5°C° 0.9 mm 1 m/S 574 mmHg 98%
    11:00 +5°C° 0.8 mm 1 m/S 574 mmHg 98%
    12:00 +5°C° 0.8 mm 1 m/S 574 mmHg 97%
    13:00 +5°C° 0.8 mm 2 m/S 573 mmHg 97%
    14:00 +4°C° 2.3 mm 2 m/S 573 mmHg 98%
    15:00 +4°C° 2.3 mm 2 m/S 573 mmHg 98%
    16:00 +4°C° 2.3 mm 2 m/S 573 mmHg 98%
    17:00 +4°C° 1.6 mm 1 m/S 572 mmHg 98%
    18:00 +4°C° 1.6 mm 1 m/S 572 mmHg 98%
    19:00 +4°C° 1.6 mm 1 m/S 572 mmHg 98%
    20:00 +4°C° 1.5 mm 1 m/S 572 mmHg 98%
    21:00 +3°C° 1.5 mm 0 m/S 572 mmHg 98%
    22:00 +3°C° 1.5 mm 0 m/S 572 mmHg 98%
    23:00 +4°C° 2.3 mm 1 m/S 571 mmHg 98%

    5 Juni, Freitag

    Zeit Temperatur Niederschläge Wind Luftdruck Luftfeuchtigkeit
    00:00 +3°C° 2.3 mm 1 m/S 571 mmHg 98%
    01:00 +3°C° 2.3 mm 1 m/S 570 mmHg 98%
    02:00 +3°C° 3.3 mm 1 m/S 570 mmHg 98%
    03:00 +1°C° 3.3 mm 2 m/S 570 mmHg 97%
    04:00 +1°C° 3.3 mm 2 m/S 569 mmHg 97%
    05:00 +1°C° 2.6 mm 2 m/S 570 mmHg 97%
    06:00 +1°C° 2.6 mm 2 m/S 570 mmHg 97%
    07:00 -1°C° 2.6 mm 2 m/S 570 mmHg 97%
    08:00 +1°C° 1.3 mm 2 m/S 571 mmHg 96%
    09:00 +1°C° 1.3 mm 2 m/S 572 mmHg 96%
    10:00 +2°C° 1.3 mm 2 m/S 572 mmHg 95%
    11:00 +1°C° 0.4 mm 3 m/S 573 mmHg 90%
    12:00 +2°C° 0.4 mm 3 m/S 574 mmHg 85%
    13:00 +3°C° 0.4 mm 3 m/S 574 mmHg 81%
    14:00 +3°C° 0.2 mm 3 m/S 574 mmHg 77%
    15:00 +3°C° 0.2 mm 3 m/S 575 mmHg 73%
    16:00 +3°C° 0.2 mm 4 m/S 575 mmHg 70%
    17:00 +2°C° 0 mm 3 m/S 575 mmHg 70%
    18:00 +1°C° 0 mm 3 m/S 575 mmHg 71%
    19:00 0°C° 0 mm 3 m/S 575 mmHg 71%
    20:00 -2°C° 0 mm 3 m/S 575 mmHg 73%
    21:00 -4°C° 0 mm 3 m/S 575 mmHg 75%
    22:00 -6°C° 0 mm 3 m/S 575 mmHg 78%
    23:00 -6°C° 0 mm 3 m/S 575 mmHg 75%

    6 Juni, Samstag

    Zeit Temperatur Niederschläge Wind Luftdruck Luftfeuchtigkeit
    00:00 -6°C° 0 mm 2 m/S 575 mmHg 73%
    01:00 -6°C° 0 mm 2 m/S 575 mmHg 71%
    02:00 -6°C° 0 mm 2 m/S 576 mmHg 68%
    03:00 -5°C° 0 mm 2 m/S 576 mmHg 65%
    04:00 -5°C° 0 mm 2 m/S 576 mmHg 63%
    05:00 -1°C° 0 mm 1 m/S 577 mmHg 61%
    06:00 +1°C° 0 mm 1 m/S 578 mmHg 59%
    07:00 +2°C° 0 mm 0 m/S 579 mmHg 57%
    08:00 +5°C° 0 mm 1 m/S 580 mmHg 55%
    09:00 +7°C° 0 mm 1 m/S 581 mmHg 54%
    10:00 +8°C° 0 mm 1 m/S 582 mmHg 52%
    11:00 +9°C° 0 mm 1 m/S 582 mmHg 52%
    12:00 +9°C° 0 mm 2 m/S 582 mmHg 51%
    13:00 +9°C° 0 mm 2 m/S 582 mmHg 50%
    14:00 +9°C° 0 mm 2 m/S 582 mmHg 52%
    15:00 +9°C° 0 mm 2 m/S 582 mmHg 54%
    16:00 +9°C° 0 mm 2 m/S 582 mmHg 56%
    17:00 +8°C° 0 mm 2 m/S 582 mmHg 63%
    18:00 +7°C° 0 mm 2 m/S 581 mmHg 70%
    19:00 +7°C° 0 mm 1 m/S 581 mmHg 77%
    20:00 +5°C° 0 mm 1 m/S 580 mmHg 82%
    21:00 +3°C° 0 mm 1 m/S 579 mmHg 87%
    22:00 +2°C° 0 mm 1 m/S 579 mmHg 92%
    23:00 +2°C° 0 mm 1 m/S 579 mmHg 92%
    Mehr zeigen